Regional Weather Roundup
Issued by NWS

Home | Current Version | Previous Version | Text Only | Print | Product List | Glossary On
Versions: 1 2 3 4 5 6 7 8 9 10 11 12 13 14 15 16 17 18 19 20 21 22 23 24 25 26 27 28
000
ASUS45 KSLC 191810
RWRUT

UTAH REGIONAL WEATHER ROUNDUP
NATIONAL WEATHER SERVICE SALT LAKE CITY UT
1100 AM MST SUN FEB 19 2017

UTZ001>011-023>025-191900-

NORTHERN UTAH

CITY           SKY/WX    TMP DP  RH WIND       PRES   REMARKS
BRIGHAM CITY     N/A     47  39  74 S8        29.71R
HILL AFB       CLOUDY    45  39  79 S9        29.69R
LOGAN          LGT RAIN  44  38  79 SE6       29.69R
OGDEN          CLOUDY    47  40  76 S7        29.69R
SALT LAKE CITY LGT RAIN  46  42  86 S8        29.69R
TOOELE VALLEY  CLOUDY    46  43  87 N5        29.70R
WENDOVER       MOSUNNY   48  37  66 SE6       29.70R
HEBER CITY     LGT RAIN  43  37  81 SW5       29.68S
WEST JORDAN    CLOUDY    49  48  95 SW5       29.71R

$$

UTZ011>015-024>027-191900-

CENTRAL/NORTHEAST UTAH

CITY           SKY/WX    TMP DP  RH WIND       PRES   REMARKS
PROVO AIRPORT  LGT RAIN  48  41  76 S6        29.72R
MOAB/CANYONLAN CLOUDY    43  42  97 N7        29.75R
DELTA          CLOUDY    46  37  71 S20       29.72S
PRICE          MIX PCPN  37  37 100 SE5       29.73R VSB 1/4 WCI  33
ROOSEVELT      MIX PCPN  37  36  93 N3        29.75S
VERNAL         LGT RAIN  37  37 100 CALM      29.72F

$$

UTZ013>016-019>022-027-191900-

SOUTHERN UTAH

CITY           SKY/WX    TMP DP  RH WIND       PRES   REMARKS
BRYCE CANYON   FOG       33  31  92 SE8       29.80R VSB<1/4 WCI  26
CEDAR CITY     CLOUDY    43  35  73 SW13      29.79R
MILFORD        CLOUDY    47  39  74 S25G33    29.75R
ST GEORGE      CLOUDY    50  45  83 W8        29.84R
HANKSVILLE     CLOUDY    43  41  93 SE5       29.79R
BLANDING       CLOUDY    40  36  86 S13       29.90R WCI  32

$$

REGIONAL REPORTS     COLORADO/ARIZONA

CITY           SKY/WX    TMP DP  RH WIND       PRES   REMARKS
CRAIG, CO      CLOUDY    41  31  67 W3        29.72F
GRAND JUNCTION CLOUDY    47  38  71 W6        29.72F
RIFLE, CO      CLOUDY    43  33  68 W6        29.73S
MONTROSE, CO   CLOUDY    45  34  65 CALM      29.75F
CORTEZ, CO     CLOUDY    38  37  97 MISG      29.86R
COLORADO CITY  CLOUDY    43  39  87 SW8       29.88R
PAGE, AZ       LGT RAIN  44  34  67 S12       29.82R
GRAND CANYON   FLURRIES  33  33 100 SW13      29.88R WCI  24
KINGMAN, AZ    CLOUDY    48  42  80 E7        29.88R
FLAGSTAFF, AZ  LGT SNOW  32  31  96 SW13      29.89R FOG     WCI  22

$$

REGIONAL REPORTS    NEVADA/IDAHO/WYOMING

CITY           SKY/WX    TMP DP  RH WIND       PRES   REMARKS
LAS VEGAS, NV  PTSUNNY   57  42  57 S12       29.81R
ELY, NY        PTSUNNY   42  34  73 SW9       29.77R
ELKO, NV       PTSUNNY   44  32  62 S12       29.70S
POCATELLO, ID  PTSUNNY   43  35  73 SW10      29.67S
BURLEY, ID     PTSUNNY   47  37  68 SW5       29.65R
FORT BRIDGER,  LGT SNOW  35  35 100 W15       29.72S VSB 1   WCI  26
EVANSTON, WY   FOG       33  30  88 SW13      29.69R VSB 3/4 WCI  24
ROCK SPRINGS,  CLOUDY    41  30  65 W8        29.67R
KEMMERER, WY     N/A     36  32  87 SW8       29.67S WCI  29

$$




USA.gov is the U.S. government's official web portal to all federal, state and local government web resources and services.